����������;��������(kWh)
2016-02-15 00:00;80,45
2016-02-15 00:15;81,5
2016-02-15 00:30;79,85
2016-02-15 00:45;81,3
2016-02-15 01:00;70,65
2016-02-15 01:15;95,85
2016-02-15 01:30;101
2016-02-15 01:45;93,3
2016-02-15 02:00;83,55
2016-02-15 02:15;82,85
2016-02-15 02:30;79,75
2016-02-15 02:45;80,8
2016-02-15 03:00;80,55
2016-02-15 03:15;82,1
2016-02-15 03:30;80,2
2016-02-15 03:45;81,95
2016-02-15 04:00;84,5
2016-02-15 04:15;82,6
2016-02-15 04:30;80,2
2016-02-15 04:45;82,95
2016-02-15 05:00;83,6
2016-02-15 05:15;80,25
2016-02-15 05:30;80,4
2016-02-15 05:45;82,65
2016-02-15 06:00;80,7
2016-02-15 06:15;88,8
2016-02-15 06:30;91,25
2016-02-15 06:45;90,95
2016-02-15 07:00;85,75
2016-02-15 07:15;82,7
2016-02-15 07:30;82,6
2016-02-15 07:45;88,95
2016-02-15 08:00;145,55
2016-02-15 08:15;161,4
2016-02-15 08:30;132,55
2016-02-15 08:45;114,05
2016-02-15 09:00;114,7
2016-02-15 09:15;128,15
2016-02-15 09:30;120,5
2016-02-15 09:45;120,1
2016-02-15 10:00;118,5
2016-02-15 10:15;121,2
2016-02-15 10:30;121,8
2016-02-15 10:45;126,95
2016-02-15 11:00;124,7
2016-02-15 11:15;120,75
2016-02-15 11:30;122,15
2016-02-15 11:45;125,55
2016-02-15 12:00;127,85
2016-02-15 12:15;131,55
2016-02-15 12:30;132,7
2016-02-15 12:45;134,3
2016-02-15 13:00;133
2016-02-15 13:15;133,25
2016-02-15 13:30;136,6
2016-02-15 13:45;133,8
2016-02-15 14:00;135
2016-02-15 14:15;137,3
2016-02-15 14:30;135,15
2016-02-15 14:45;135,55
2016-02-15 15:00;129,4
2016-02-15 15:15;130,7
2016-02-15 15:30;127,3
2016-02-15 15:45;121,75
2016-02-15 16:00;121,1
2016-02-15 16:15;114,75
2016-02-15 16:30;118,1
2016-02-15 16:45;118,45
2016-02-15 17:00;127,15
2016-02-15 17:15;121,7
2016-02-15 17:30;122,25
2016-02-15 17:45;123,25
2016-02-15 18:00;122,25
2016-02-15 18:15;113,05
2016-02-15 18:30;113,3
2016-02-15 18:45;114,9
2016-02-15 19:00;110,6
2016-02-15 19:15;115,2
2016-02-15 19:30;112,3
2016-02-15 19:45;103,2
2016-02-15 20:00;99,5
2016-02-15 20:15;99,4
2016-02-15 20:30;96,85
2016-02-15 20:45;97,75
2016-02-15 21:00;94,6
2016-02-15 21:15;91,15
2016-02-15 21:30;91
2016-02-15 21:45;88,05
2016-02-15 22:00;89,05
2016-02-15 22:15;88,85
2016-02-15 22:30;88,9
2016-02-15 22:45;85,95
2016-02-15 23:00;87,55
2016-02-15 23:15;84,9
2016-02-15 23:30;78,05
2016-02-15 23:45;74,05
2016-02-16 00:00;75
2016-02-16 00:15;73,25
2016-02-16 00:30;75
2016-02-16 00:45;74,55
2016-02-16 01:00;72,95
2016-02-16 01:15;75,4
2016-02-16 01:30;82,3
2016-02-16 01:45;100,05
2016-02-16 02:00;85,85
2016-02-16 02:15;82,65
2016-02-16 02:30;78,1
2016-02-16 02:45;80,85
2016-02-16 03:00;78,55
2016-02-16 03:15;81
2016-02-16 03:30;79,95
2016-02-16 03:45;80,5
2016-02-16 04:00;83,15
2016-02-16 04:15;80,05
2016-02-16 04:30;79,1
2016-02-16 04:45;84
2016-02-16 05:00;85,3
2016-02-16 05:15;81,2
2016-02-16 05:30;84,75
2016-02-16 05:45;79,6
2016-02-16 06:00;85,5
2016-02-16 06:15;89,05
2016-02-16 06:30;93,55
2016-02-16 06:45;87,2
2016-02-16 07:00;88
2016-02-16 07:15;86,8
2016-02-16 07:30;87,55
2016-02-16 07:45;90,65
2016-02-16 08:00;146,8
2016-02-16 08:15;108,65
2016-02-16 08:30;106,1
2016-02-16 08:45;106,55
2016-02-16 09:00;109,15
2016-02-16 09:15;115,9
2016-02-16 09:30;122,7
2016-02-16 09:45;121
2016-02-16 10:00;119,25
2016-02-16 10:15;126,95
2016-02-16 10:30;133,6
2016-02-16 10:45;136,75
2016-02-16 11:00;140,5
2016-02-16 11:15;136,4
2016-02-16 11:30;141,4
2016-02-16 11:45;143,7
2016-02-16 12:00;139,8
2016-02-16 12:15;140
2016-02-16 12:30;141,5
2016-02-16 12:45;143,3
2016-02-16 13:00;145,25
2016-02-16 13:15;146,1
2016-02-16 13:30;146,6
2016-02-16 13:45;140,9
2016-02-16 14:00;141,9
2016-02-16 14:15;145,55
2016-02-16 14:30;135,9
2016-02-16 14:45;137,3
2016-02-16 15:00;139,25
2016-02-16 15:15;137,7
2016-02-16 15:30;129,35
2016-02-16 15:45;127,15
2016-02-16 16:00;121,55
2016-02-16 16:15;119,2
2016-02-16 16:30;122,6
2016-02-16 16:45;119,75
2016-02-16 17:00;124,05
2016-02-16 17:15;123,2
2016-02-16 17:30;113
2016-02-16 17:45;109,8
2016-02-16 18:00;110,35
2016-02-16 18:15;115,3
2016-02-16 18:30;117,75
2016-02-16 18:45;118,45
2016-02-16 19:00;113,25
2016-02-16 19:15;113,05
2016-02-16 19:30;113,35
2016-02-16 19:45;113,55
2016-02-16 20:00;103,65
2016-02-16 20:15;104,15
2016-02-16 20:30;103,95
2016-02-16 20:45;105,45
2016-02-16 21:00;102,65
2016-02-16 21:15;101,85
2016-02-16 21:30;99,65
2016-02-16 21:45;97,55
2016-02-16 22:00;87,15
2016-02-16 22:15;84,2
2016-02-16 22:30;82,5
2016-02-16 22:45;82,5
2016-02-16 23:00;79,75
2016-02-16 23:15;78,7
2016-02-16 23:30;75,7
2016-02-16 23:45;75,9
2016-02-17 00:00;74,2
2016-02-17 00:15;75,2
2016-02-17 00:30;74,55
2016-02-17 00:45;74,3
2016-02-17 01:00;74,95
2016-02-17 01:15;73,1
2016-02-17 01:30;73,25
2016-02-17 01:45;72,5
2016-02-17 02:00;93,3
2016-02-17 02:15;94,15
2016-02-17 02:30;85,2
2016-02-17 02:45;80,65
2016-02-17 03:00;80,5
2016-02-17 03:15;78,95
2016-02-17 03:30;79,45
2016-02-17 03:45;78,1
2016-02-17 04:00;83,85
2016-02-17 04:15;79,1
2016-02-17 04:30;81,4
2016-02-17 04:45;84,9
2016-02-17 05:00;81,75
2016-02-17 05:15;79,3
2016-02-17 05:30;81,2
2016-02-17 05:45;82,4
2016-02-17 06:00;81,35
2016-02-17 06:15;90,45
2016-02-17 06:30;91,05
2016-02-17 06:45;91,05
2016-02-17 07:00;86,4
2016-02-17 07:15;84,15
2016-02-17 07:30;85,5
2016-02-17 07:45;88,95
2016-02-17 08:00;97,6
2016-02-17 08:15;101,6
2016-02-17 08:30;105,3
2016-02-17 08:45;105,55
2016-02-17 09:00;114,65
2016-02-17 09:15;126,1
2016-02-17 09:30;130,9
2016-02-17 09:45;135,25
2016-02-17 10:00;136,35
2016-02-17 10:15;139,25
2016-02-17 10:30;148,1
2016-02-17 10:45;152,45
2016-02-17 11:00;151,6
2016-02-17 11:15;139,7
2016-02-17 11:30;139,25
2016-02-17 11:45;144,95
2016-02-17 12:00;145,45
2016-02-17 12:15;146,35
2016-02-17 12:30;143,7
2016-02-17 12:45;141,2
2016-02-17 13:00;139,35
2016-02-17 13:15;135,95
2016-02-17 13:30;142,7
2016-02-17 13:45;144,95
2016-02-17 14:00;146,65
2016-02-17 14:15;143,25
2016-02-17 14:30;143,15
2016-02-17 14:45;141,55
2016-02-17 15:00;142,55
2016-02-17 15:15;136,95
2016-02-17 15:30;133,95
2016-02-17 15:45;130,1
2016-02-17 16:00;128,6
2016-02-17 16:15;119,75
2016-02-17 16:30;125,25
2016-02-17 16:45;123,7
2016-02-17 17:00;126,45
2016-02-17 17:15;124,15
2016-02-17 17:30;125,6
2016-02-17 17:45;123,4
2016-02-17 18:00;121,1
2016-02-17 18:15;118,1
2016-02-17 18:30;127,55
2016-02-17 18:45;125,2
2016-02-17 19:00;127,35
2016-02-17 19:15;129,15
2016-02-17 19:30;127,4
2016-02-17 19:45;124,7
2016-02-17 20:00;122,15
2016-02-17 20:15;124,2
2016-02-17 20:30;107,1
2016-02-17 20:45;101,4
2016-02-17 21:00;96,1
2016-02-17 21:15;93,3
2016-02-17 21:30;91,45
2016-02-17 21:45;92,2
2016-02-17 22:00;88,85
2016-02-17 22:15;88,05
2016-02-17 22:30;86,75
2016-02-17 22:45;84,15
2016-02-17 23:00;84
2016-02-17 23:15;79,8
2016-02-17 23:30;81,8
2016-02-17 23:45;78,25
2016-02-18 00:00;77,5
2016-02-18 00:15;77,3
2016-02-18 00:30;77,65
2016-02-18 00:45;78,75
2016-02-18 01:00;75,9
2016-02-18 01:15;77,8
2016-02-18 01:30;77,4
2016-02-18 01:45;78,2
2016-02-18 02:00;76,7
2016-02-18 02:15;76
2016-02-18 02:30;76,65
2016-02-18 02:45;98,15
2016-02-18 03:00;99,4
2016-02-18 03:15;89,85
2016-02-18 03:30;90,25
2016-02-18 03:45;87,15
2016-02-18 04:00;89,2
2016-02-18 04:15;88,4
2016-02-18 04:30;87,25
2016-02-18 04:45;83,05
2016-02-18 05:00;80,25
2016-02-18 05:15;81
2016-02-18 05:30;77,55
2016-02-18 05:45;81,45
2016-02-18 06:00;80,7
2016-02-18 06:15;81,9
2016-02-18 06:30;88,65
2016-02-18 06:45;89,65
2016-02-18 07:00;90,4
2016-02-18 07:15;87,25
2016-02-18 07:30;86,15
2016-02-18 07:45;89,4
2016-02-18 08:00;95,55
2016-02-18 08:15;99,65
2016-02-18 08:30;104,25
2016-02-18 08:45;111,1
2016-02-18 09:00;110,75
2016-02-18 09:15;118,9
2016-02-18 09:30;122,35
2016-02-18 09:45;127
2016-02-18 10:00;127,65
2016-02-18 10:15;136,05
2016-02-18 10:30;136,6
2016-02-18 10:45;140,7
2016-02-18 11:00;147,1
2016-02-18 11:15;154,15
2016-02-18 11:30;152,85
2016-02-18 11:45;155,05
2016-02-18 12:00;151,95
2016-02-18 12:15;148,05
2016-02-18 12:30;146
2016-02-18 12:45;146,8
2016-02-18 13:00;148,7
2016-02-18 13:15;147,7
2016-02-18 13:30;147,7
2016-02-18 13:45;144,25
2016-02-18 14:00;148,25
2016-02-18 14:15;144,9
2016-02-18 14:30;141,1
2016-02-18 14:45;141,85
2016-02-18 15:00;140,3
2016-02-18 15:15;135,25
2016-02-18 15:30;134,7
2016-02-18 15:45;128,35
2016-02-18 16:00;126,7
2016-02-18 16:15;117,9
2016-02-18 16:30;121,65
2016-02-18 16:45;121,05
2016-02-18 17:00;125,5
2016-02-18 17:15;123,65
2016-02-18 17:30;120,15
2016-02-18 17:45;119,95
2016-02-18 18:00;125,8
2016-02-18 18:15;124,9
2016-02-18 18:30;128
2016-02-18 18:45;130,85
2016-02-18 19:00;131,3
2016-02-18 19:15;135,45
2016-02-18 19:30;127,05
2016-02-18 19:45;125,05
2016-02-18 20:00;122,65
2016-02-18 20:15;120,95
2016-02-18 20:30;116,65
2016-02-18 20:45;110,9
2016-02-18 21:00;111,45
2016-02-18 21:15;98,75
2016-02-18 21:30;98,5
2016-02-18 21:45;92
2016-02-18 22:00;90,35
2016-02-18 22:15;86,15
2016-02-18 22:30;83,8
2016-02-18 22:45;80,25
2016-02-18 23:00;78,5
2016-02-18 23:15;80
2016-02-18 23:30;79,25
2016-02-18 23:45;76,9
2016-02-19 00:00;77,7
2016-02-19 00:15;77,35
2016-02-19 00:30;76,8
2016-02-19 00:45;73,7
2016-02-19 01:00;76,25
2016-02-19 01:15;80,55
2016-02-19 01:30;80,35
2016-02-19 01:45;82
2016-02-19 02:00;80
2016-02-19 02:15;82,2
2016-02-19 02:30;80,45
2016-02-19 02:45;82,85
2016-02-19 03:00;85,8
2016-02-19 03:15;104,15
2016-02-19 03:30;99,5
2016-02-19 03:45;88,1
2016-02-19 04:00;90,9
2016-02-19 04:15;87,75
2016-02-19 04:30;86,55
2016-02-19 04:45;90,35
2016-02-19 05:00;86,9
2016-02-19 05:15;83,75
2016-02-19 05:30;88,55
2016-02-19 05:45;86,05
2016-02-19 06:00;86,8
2016-02-19 06:15;87,6
2016-02-19 06:30;95,65
2016-02-19 06:45;88,8
2016-02-19 07:00;94,15
2016-02-19 07:15;89,9
2016-02-19 07:30;88,5
2016-02-19 07:45;93,7
2016-02-19 08:00;99,6
2016-02-19 08:15;107,2
2016-02-19 08:30;102,8
2016-02-19 08:45;104,15
2016-02-19 09:00;112,8
2016-02-19 09:15;119,5
2016-02-19 09:30;127,9
2016-02-19 09:45;125,75
2016-02-19 10:00;133,25
2016-02-19 10:15;141,85
2016-02-19 10:30;136,2
2016-02-19 10:45;140,7
2016-02-19 11:00;139,4
2016-02-19 11:15;97,2
2016-02-19 11:30;138
2016-02-19 11:45;135,9
2016-02-19 12:00;142,8
2016-02-19 12:15;139,85
2016-02-19 12:30;141,6
2016-02-19 12:45;139
2016-02-19 13:00;139,05
2016-02-19 13:15;137,55
2016-02-19 13:30;139,75
2016-02-19 13:45;138,55
2016-02-19 14:00;135,4
2016-02-19 14:15;137,8
2016-02-19 14:30;133,05
2016-02-19 14:45;133,6
2016-02-19 15:00;129,45
2016-02-19 15:15;130,2
2016-02-19 15:30;127,25
2016-02-19 15:45;123,3
2016-02-19 16:00;118,3
2016-02-19 16:15;116,2
2016-02-19 16:30;115,85
2016-02-19 16:45;114,7
2016-02-19 17:00;118,15
2016-02-19 17:15;116,85
2016-02-19 17:30;114,4
2016-02-19 17:45;107,7
2016-02-19 18:00;110,55
2016-02-19 18:15;106,5
2016-02-19 18:30;111
2016-02-19 18:45;120,7
2016-02-19 19:00;121,8
2016-02-19 19:15;123,8
2016-02-19 19:30;124,05
2016-02-19 19:45;124,25
2016-02-19 20:00;124,5
2016-02-19 20:15;114,35
2016-02-19 20:30;110,9
2016-02-19 20:45;110,1
2016-02-19 21:00;107,85
2016-02-19 21:15;103,8
2016-02-19 21:30;95,55
2016-02-19 21:45;95,55
2016-02-19 22:00;91,9
2016-02-19 22:15;89,1
2016-02-19 22:30;87,35
2016-02-19 22:45;85,25
2016-02-19 23:00;84,3
2016-02-19 23:15;79,5
2016-02-19 23:30;86
2016-02-19 23:45;85,05
2016-02-20 00:00;85,55
2016-02-20 00:15;81,85
2016-02-20 00:30;85
2016-02-20 00:45;81,8
2016-02-20 01:00;77,7
2016-02-20 01:15;76,7
2016-02-20 01:30;78,15
2016-02-20 01:45;75,05
2016-02-20 02:00;75,6
2016-02-20 02:15;73,25
2016-02-20 02:30;72,95
2016-02-20 02:45;71,85
2016-02-20 03:00;74,45
2016-02-20 03:15;72,3
2016-02-20 03:30;71,4
2016-02-20 03:45;72
2016-02-20 04:00;75,65
2016-02-20 04:15;78,45
2016-02-20 04:30;78,65
2016-02-20 04:45;82,4
2016-02-20 05:00;78,35
2016-02-20 05:15;76,45
2016-02-20 05:30;80,2
2016-02-20 05:45;77,25
2016-02-20 06:00;77,15
2016-02-20 06:15;84,1
2016-02-20 06:30;84,4
2016-02-20 06:45;81,2
2016-02-20 07:00;76,6
2016-02-20 07:15;74,95
2016-02-20 07:30;72,35
2016-02-20 07:45;73,6
2016-02-20 08:00;72,2
2016-02-20 08:15;73,05
2016-02-20 08:30;70,9
2016-02-20 08:45;67,25
2016-02-20 09:00;66,9
2016-02-20 09:15;64,25
2016-02-20 09:30;65,1
2016-02-20 09:45;67,45
2016-02-20 10:00;72,65
2016-02-20 10:15;74,75
2016-02-20 10:30;81,25
2016-02-20 10:45;79,35
2016-02-20 11:00;72,1
2016-02-20 11:15;64,6
2016-02-20 11:30;65,35
2016-02-20 11:45;68,2
2016-02-20 12:00;68,6
2016-02-20 12:15;68,3
2016-02-20 12:30;67,05
2016-02-20 12:45;65,7
2016-02-20 13:00;65,65
2016-02-20 13:15;65,15
2016-02-20 13:30;66,8
2016-02-20 13:45;68,1
2016-02-20 14:00;70,45
2016-02-20 14:15;71,05
2016-02-20 14:30;73,9
2016-02-20 14:45;70,7
2016-02-20 15:00;71,4
2016-02-20 15:15;69,35
2016-02-20 15:30;74,4
2016-02-20 15:45;69,7
2016-02-20 16:00;70,15
2016-02-20 16:15;70,6
2016-02-20 16:30;69,6
2016-02-20 16:45;74,7
2016-02-20 17:00;75,75
2016-02-20 17:15;78,15
2016-02-20 17:30;80,05
2016-02-20 17:45;82,7
2016-02-20 18:00;84
2016-02-20 18:15;83,25
2016-02-20 18:30;90,2
2016-02-20 18:45;91,35
2016-02-20 19:00;87,1
2016-02-20 19:15;84,65
2016-02-20 19:30;85,3
2016-02-20 19:45;84,9
2016-02-20 20:00;85,3
2016-02-20 20:15;87,4
2016-02-20 20:30;84,4
2016-02-20 20:45;84,9
2016-02-20 21:00;83,35
2016-02-20 21:15;84,75
2016-02-20 21:30;85,4
2016-02-20 21:45;86,05
2016-02-20 22:00;83,95
2016-02-20 22:15;80,75
2016-02-20 22:30;81,9
2016-02-20 22:45;78,95
2016-02-20 23:00;81,35
2016-02-20 23:15;79,45
2016-02-20 23:30;79,45
2016-02-20 23:45;80,5
2016-02-21 00:00;78,35
2016-02-21 00:15;78,7
2016-02-21 00:30;76,55
2016-02-21 00:45;79,55
2016-02-21 01:00;77,35
2016-02-21 01:15;76,85
2016-02-21 01:30;78,2
2016-02-21 01:45;76,5
2016-02-21 02:00;78,35
2016-02-21 02:15;77,35
2016-02-21 02:30;74,85
2016-02-21 02:45;75,25
2016-02-21 03:00;73,95
2016-02-21 03:15;75,6
2016-02-21 03:30;73,6
2016-02-21 03:45;74,5
2016-02-21 04:00;78,4
2016-02-21 04:15;76,7
2016-02-21 04:30;79,35
2016-02-21 04:45;83,45
2016-02-21 05:00;80,95
2016-02-21 05:15;79,4
2016-02-21 05:30;82,1
2016-02-21 05:45;79,35
2016-02-21 06:00;78,5
2016-02-21 06:15;86,45
2016-02-21 06:30;80,8
2016-02-21 06:45;80,25
2016-02-21 07:00;78,45
2016-02-21 07:15;78,7
2016-02-21 07:30;77,35
2016-02-21 07:45;79,4
2016-02-21 08:00;70,25
2016-02-21 08:15;69,55
2016-02-21 08:30;67,2
2016-02-21 08:45;65,55
2016-02-21 09:00;64,3
2016-02-21 09:15;65,65
2016-02-21 09:30;65,85
2016-02-21 09:45;66,1
2016-02-21 10:00;64,55
2016-02-21 10:15;71,95
2016-02-21 10:30;73,2
2016-02-21 10:45;82,1
2016-02-21 11:00;80,1
2016-02-21 11:15;64,35
2016-02-21 11:30;64,6
2016-02-21 11:45;67,95
2016-02-21 12:00;66,5
2016-02-21 12:15;67,6
2016-02-21 12:30;67,05
2016-02-21 12:45;68,35
2016-02-21 13:00;68,05
2016-02-21 13:15;71,5
2016-02-21 13:30;70,25
2016-02-21 13:45;71,2
2016-02-21 14:00;66,05
2016-02-21 14:15;71,5
2016-02-21 14:30;68,35
2016-02-21 14:45;70,15
2016-02-21 15:00;70,25
2016-02-21 15:15;70,75
2016-02-21 15:30;70,6
2016-02-21 15:45;74,5
2016-02-21 16:00;74,65
2016-02-21 16:15;73
2016-02-21 16:30;69,2
2016-02-21 16:45;75,7
2016-02-21 17:00;71,7
2016-02-21 17:15;72,65
2016-02-21 17:30;74,25
2016-02-21 17:45;79,65
2016-02-21 18:00;82,9
2016-02-21 18:15;82,15
2016-02-21 18:30;87,9
2016-02-21 18:45;90,3
2016-02-21 19:00;94,05
2016-02-21 19:15;93,8
2016-02-21 19:30;96,85
2016-02-21 19:45;95,8
2016-02-21 20:00;95,2
2016-02-21 20:15;96,05
2016-02-21 20:30;96,5
2016-02-21 20:45;91,65
2016-02-21 21:00;90,55
2016-02-21 21:15;90,2
2016-02-21 21:30;89,05
2016-02-21 21:45;86,45
2016-02-21 22:00;84,7
2016-02-21 22:15;85,55
2016-02-21 22:30;81,55
2016-02-21 22:45;82,2
2016-02-21 23:00;80,4
2016-02-21 23:15;79,8
2016-02-21 23:30;78,45
2016-02-21 23:45;80,1

